TimeCDT,TemperatureF,Dew PointF,Humidity,Sea Level PressureIn,VisibilityMPH,Wind Direction,Wind SpeedMPH,Gust SpeedMPH,PrecipitationIn,Events,Conditions,WindDirDegrees,DateUTC
12:15 AM,72.5,59.9,64,30.06,10.0,ESE,3.5,-,N/A,,Clear,120,2013-08-23 05:15:00
12:35 AM,72.0,59.5,65,30.06,10.0,East,5.8,-,N/A,,Clear,100,2013-08-23 05:35:00
12:55 AM,71.2,59.2,66,30.06,10.0,East,6.9,-,N/A,,Clear,100,2013-08-23 05:55:00
1:15 AM,71.1,59.0,66,30.06,10.0,East,5.8,-,N/A,,Clear,80,2013-08-23 06:15:00
1:35 AM,70.9,58.3,64,30.06,10.0,East,6.9,-,N/A,,Clear,80,2013-08-23 06:35:00
1:55 AM,71.1,57.6,62,30.05,10.0,East,5.8,-,N/A,,Clear,80,2013-08-23 06:55:00
2:15 AM,71.1,57.4,62,30.05,10.0,East,5.8,-,N/A,,Clear,80,2013-08-23 07:15:00
2:35 AM,70.9,57.2,62,30.05,10.0,ENE,5.8,-,N/A,,Clear,70,2013-08-23 07:35:00
2:55 AM,71.2,57.0,61,30.05,10.0,East,5.8,-,N/A,,Clear,80,2013-08-23 07:55:00
3:35 AM,70.7,56.8,61,30.04,10.0,East,6.9,-,N/A,,Clear,80,2013-08-23 08:35:00
3:55 AM,69.8,56.8,63,30.04,10.0,ENE,5.8,-,N/A,,Clear,60,2013-08-23 08:55:00
4:15 AM,70.3,56.8,62,30.04,10.0,East,6.9,-,N/A,,Scattered Clouds,80,2013-08-23 09:15:00
4:35 AM,69.4,56.7,64,30.03,10.0,East,4.6,-,N/A,,Scattered Clouds,80,2013-08-23 09:35:00
4:55 AM,69.1,57.0,65,30.03,10.0,East,6.9,-,N/A,,Clear,90,2013-08-23 09:55:00
5:15 AM,70.0,57.4,64,30.03,10.0,East,8.1,-,N/A,,Clear,80,2013-08-23 10:15:00
5:35 AM,71.6,58.1,62,30.03,10.0,East,9.2,-,N/A,,Clear,90,2013-08-23 10:35:00
5:55 AM,70.9,58.1,64,30.03,10.0,East,8.1,-,N/A,,Clear,100,2013-08-23 10:55:00
6:15 AM,69.1,57.4,66,30.04,10.0,SW,5.8,-,N/A,,Clear,220,2013-08-23 11:15:00
6:35 AM,66.9,57.2,71,30.04,10.0,West,4.6,-,N/A,,Clear,260,2013-08-23 11:35:00
6:55 AM,66.2,58.1,75,30.05,10.0,West,3.5,-,N/A,,Clear,260,2013-08-23 11:55:00
7:15 AM,66.4,58.5,76,30.05,10.0,Calm,Calm,-,N/A,,Clear,0,2013-08-23 12:15:00
7:35 AM,67.1,58.8,75,30.06,10.0,Calm,Calm,-,N/A,,Clear,0,2013-08-23 12:35:00
7:55 AM,67.6,58.3,72,30.06,10.0,Calm,Calm,-,N/A,,Clear,0,2013-08-23 12:55:00
8:15 AM,69.1,59.0,70,30.07,10.0,East,4.6,-,N/A,,Clear,100,2013-08-23 13:15:00
8:35 AM,70.5,59.0,67,30.07,10.0,SE,4.6,-,N/A,,Clear,140,2013-08-23 13:35:00
8:55 AM,72.1,59.2,64,30.07,10.0,SE,5.8,-,N/A,,Clear,140,2013-08-23 13:55:00
9:15 AM,72.7,59.9,64,30.08,10.0,SSE,3.5,-,N/A,,Clear,160,2013-08-23 14:15:00
9:35 AM,75.6,60.8,60,30.08,10.0,Calm,Calm,-,N/A,,Clear,0,2013-08-23 14:35:00
9:55 AM,77.0,60.6,57,30.08,10.0,SE,3.5,-,N/A,,Clear,130,2013-08-23 14:55:00
10:15 AM,79.0,60.8,54,30.09,10.0,SSE,4.6,-,N/A,,Clear,160,2013-08-23 15:15:00
10:35 AM,81.3,61.2,50,30.09,10.0,SE,4.6,-,N/A,,Clear,130,2013-08-23 15:35:00
10:55 AM,84.0,60.8,45,30.09,10.0,SE,5.8,-,N/A,,Clear,130,2013-08-23 15:55:00
11:15 AM,85.3,60.1,42,30.09,10.0,ESE,3.5,-,N/A,,Clear,120,2013-08-23 16:15:00
11:35 AM,87.1,59.2,39,30.09,10.0,SSE,8.1,-,N/A,,Clear,160,2013-08-23 16:35:00
11:55 AM,87.6,58.6,37,30.09,10.0,South,8.1,-,N/A,,Clear,170,2013-08-23 16:55:00
12:15 PM,89.1,57.7,35,30.07,10.0,SSE,10.4,-,N/A,,Scattered Clouds,160,2013-08-23 17:15:00
12:55 PM,90.1,57.6,33,30.06,10.0,SSE,4.6,-,N/A,,Scattered Clouds,160,2013-08-23 17:55:00
1:15 PM,89.8,56.3,32,30.05,10.0,East,6.9,-,N/A,,Scattered Clouds,90,2013-08-23 18:15:00
1:35 PM,90.7,56.7,32,30.04,10.0,SE,8.1,-,N/A,,Scattered Clouds,130,2013-08-23 18:35:00
1:55 PM,89.8,56.3,32,30.04,10.0,SE,18.4,-,N/A,,Mostly Cloudy,130,2013-08-23 18:55:00
2:15 PM,91.2,56.7,31,30.03,10.0,ESE,4.6,-,N/A,,Scattered Clouds,120,2013-08-23 19:15:00
2:35 PM,82.6,61.5,49,30.02,3.0,North,29.9,38.0,0.06,Rain-Thunderstorm,Heavy Thunderstorms and Rain,10,2013-08-23 19:35:00
2:55 PM,82.9,59.5,45,30.02,10.0,SE,18.4,24.2,0.11,Thunderstorm,Thunderstorm,130,2013-08-23 19:55:00
3:15 PM,83.3,61.0,47,30.04,10.0,South,16.1,-,N/A,Thunderstorm,Thunderstorm,190,2013-08-23 20:15:00
3:35 PM,72.5,64.6,76,30.04,7.0,SW,8.1,-,0.03,Rain-Thunderstorm,Rain,220,2013-08-23 20:35:00
3:55 PM,77.7,65.5,66,30.03,10.0,South,8.1,-,0.03,,Scattered Clouds,170,2013-08-23 20:55:00
4:15 PM,80.4,66.0,61,30.02,10.0,South,15.0,-,N/A,,Clear,190,2013-08-23 21:15:00
4:35 PM,82.4,62.6,51,30.02,10.0,South,15.0,20.7,N/A,,Clear,190,2013-08-23 21:35:00
4:55 PM,83.3,61.2,47,30.02,10.0,South,13.8,18.4,N/A,,Clear,190,2013-08-23 21:55:00
5:15 PM,83.5,61.2,47,30.02,10.0,South,15.0,-,N/A,,Clear,190,2013-08-23 22:15:00
5:35 PM,84.6,60.6,44,30.01,10.0,SSW,11.5,16.1,N/A,,Clear,200,2013-08-23 22:35:00
5:55 PM,84.4,60.3,44,30.00,10.0,SSW,11.5,17.3,N/A,,Clear,200,2013-08-23 22:55:00
6:15 PM,83.5,60.8,46,30.00,10.0,SSW,10.4,-,N/A,,Clear,200,2013-08-23 23:15:00
6:35 PM,82.6,60.1,46,30.00,10.0,South,10.4,-,N/A,,Clear,190,2013-08-23 23:35:00
6:55 PM,82.9,59.5,45,29.99,10.0,South,8.1,-,N/A,,Clear,190,2013-08-23 23:55:00
7:15 PM,83.8,58.6,42,29.99,10.0,South,9.2,-,N/A,,Clear,190,2013-08-24 00:15:00
7:35 PM,83.3,59.2,44,29.98,10.0,South,9.2,-,N/A,,Clear,180,2013-08-24 00:35:00
7:55 PM,81.9,59.9,47,29.98,10.0,South,8.1,-,N/A,,Clear,190,2013-08-24 00:55:00
8:15 PM,79.7,61.0,53,29.98,10.0,Calm,Calm,-,N/A,,Clear,0,2013-08-24 01:15:00
8:35 PM,78.8,61.5,55,29.98,10.0,Calm,Calm,-,N/A,,Clear,0,2013-08-24 01:35:00
8:55 PM,76.1,65.1,69,29.99,10.0,Calm,Calm,-,N/A,,Clear,0,2013-08-24 01:55:00
9:15 PM,77.0,63.7,63,30.00,10.0,WNW,3.5,-,N/A,,Clear,290,2013-08-24 02:15:00
9:35 PM,75.9,63.7,66,30.02,10.0,Calm,Calm,-,N/A,,Clear,0,2013-08-24 02:35:00
9:55 PM,76.8,62.4,61,30.02,10.0,Calm,Calm,-,N/A,,Clear,0,2013-08-24 02:55:00
10:15 PM,76.6,63.1,63,30.04,10.0,Calm,Calm,-,N/A,,Clear,0,2013-08-24 03:15:00
10:35 PM,76.8,64.2,65,30.04,10.0,Calm,Calm,-,N/A,,Clear,0,2013-08-24 03:35:00
10:55 PM,76.1,63.7,65,30.05,10.0,North,3.5,-,N/A,,Clear,350,2013-08-24 03:55:00
11:15 PM,75.9,63.1,64,30.04,10.0,NNE,3.5,-,N/A,,Clear,30,2013-08-24 04:15:00
11:35 PM,76.1,63.0,64,30.05,10.0,North,3.5,-,N/A,,Clear,10,2013-08-24 04:35:00
11:55 PM,75.7,63.7,66,30.05,10.0,Calm,Calm,-,N/A,,Clear,0,2013-08-24 04:55:00